DW9840 Weather Reports


Display with metric or nautical units.
time (UTC)temp
F
wind
direction
speed
MPH
gust
MPH
rain 1hr
in
rain 24hr
in
rain mn
in
humidity
%
barometer
mb
20260831063021 60 207 0.0 0.0 0.00 0.00 0.00 3 1010.9
20260831061517 60 167 0.0 0.0 0.00 0.00 0.00 3 1011.0
20260831060107 60 211 0.0 0.0 0.00 0.00 0.00 3 1011.0
20260831054551 61 150 0.0 0.0 0.00 0.00 0.00 3 1010.9
20260831053032 61 225 0.0 0.0 0.00 0.00 0.00 3 1010.9
20260831051528 61 231 0.0 1.0 0.00 0.00 0.00 3 1010.8
20260831050002 62 223 0.0 1.0 0.00 0.00 0.00 3 1010.9
20260831044605 62 257 0.0 1.0 0.00 0.00 0.00 3 1010.9
20260831043037 62 205 0.0 3.0 0.00 0.00 0.00 3 1010.8
20260831041613 62 195 0.0 1.0 0.00 0.00 0.00 3 1010.6
20260831040011 62 176 0.0 2.0 0.00 0.00 0.00 3 1010.3
20260831034507 62 259 0.0 0.0 0.00 0.00 0.00 27 1010.3
20260831033044 62 162 0.0 0.0 0.00 0.00 0.00 46 1010.3
20260831031540 63 243 0.0 1.0 0.00 0.00 0.00 50 1010.1
20260831030017 64 153 0.0 1.0 0.00 0.00 0.00 56 1010.0
20260831024513 64 222 0.0 2.0 0.00 0.00 0.00 62 1010.0
20260831023052 66 201 0.0 8.0 0.00 0.00 0.00 64 1010.1
20260831021552 68 190 0.0 5.0 0.00 0.00 0.00 62 1010.1
20260831020026 71 243 0.0 5.0 0.00 0.00 0.00 58 1010.2
20260831014523 72 203 0.0 5.0 0.00 0.00 0.00 56 1010.3
20260831013117 73 218 0.0 5.0 0.00 0.00 0.00 54 1010.2
20260831011557 74 152 0.0 2.0 0.00 0.00 0.00 53 1010.3
20260831010116 74 181 0.0 6.0 0.00 0.00 0.00 52 1010.3
20260831004535 74 221 0.0 7.0 0.00 0.00 0.00 52 1010.4
20260831003034 75 166 0.0 5.0 0.00 0.00 0.00 51 1010.4
20260831001525 76 181 0.0 6.0 0.00 0.00 0.00 51 1010.5
20260831000021 77 221 0.0 3.0 0.00 0.00 0.00 49 1010.6
20260830234516 78 208 0.0 6.0 0.00 0.00 0.00 49 1010.6
20260830233020 79 242 0.0 7.0 0.00 0.00 0.00 47 1010.5
20260830231508 79 207 0.0 7.0 0.00 0.00 0.00 47 1010.6
20260830230001 81 201 0.0 6.0 0.00 0.00 0.00 46 1010.6
20260830224540 81 245 0.0 2.0 0.00 0.00 0.00 46 1010.6
20260830223045 82 267 0.0 3.0 0.00 0.00 0.00 46 1010.6
20260830221513 82 146 0.0 1.0 0.00 0.00 0.00 46 1010.8
20260830220009 82 224 0.0 1.0 0.00 0.00 0.00 45 1011.0
20260830214552 83 122 0.0 1.0 0.00 0.00 0.00 44 1011.2
20260830213049 84 245 0.0 1.0 0.00 0.00 0.00 44 1011.4
20260830211543 83 214 0.0 2.0 0.00 0.00 0.00 44 1011.4
20260830210038 83 257 0.0 1.0 0.00 0.00 0.00 45 1011.4
20260830204536 82 215 0.0 3.0 0.00 0.00 0.00 45 1011.7
20260830203034 81 214 0.0 0.0 0.00 0.00 0.00 47 1011.8
20260830201524 81 218 0.0 0.0 0.00 0.00 0.00 48 1012.0
20260830200020 79 175 0.0 0.0 0.00 0.00 0.00 50 1012.3
20260830194607 78 193 0.0 0.0 0.00 0.00 0.00 51 1012.4
20260830193103 78 211 0.0 1.0 0.00 0.00 0.00 51 1012.5
20260830191534 78 215 0.0 0.0 0.00 0.00 0.00 51 1012.7
20260830190029 75 253 0.0 0.0 0.00 0.00 0.00 54 1012.7
20260830184508 75 203 0.0 0.0 0.00 0.00 0.00 53 1012.9
20260830183003 74 214 0.0 0.0 0.00 0.00 0.00 54 1012.9
20260830181541 72 236 0.0 0.0 0.00 0.00 0.00 55 1013.0
20260830180037 72 319 0.0 0.0 0.00 0.00 0.00 55 1013.0
20260830174515 71 176 0.0 0.0 0.00 0.00 0.00 54 1013.1
20260830173010 70 289 0.0 1.0 0.00 0.00 0.00 55 1013.1
20260830171609 69 217 0.0 0.0 0.00 0.00 0.00 56 1013.1
20260830170045 68 211 0.0 0.0 0.00 0.00 0.00 55 1013.1
20260830164523 68 340 0.0 0.0 0.00 0.00 0.00 54 1013.0
20260830163020 68 218 0.0 0.0 0.00 0.00 0.00 53 1013.1
20260830161557 66 217 0.0 0.0 0.00 0.00 0.00 50 1013.1
20260830160053 64 217 0.0 0.0 0.00 0.00 0.00 45 1013.2
20260830154531 64 217 0.0 0.0 0.00 0.00 0.00 25 1013.3
20260830153026 68 146 0.0 0.0 0.00 0.00 0.00 3 1013.3
20260830151504 65 146 0.0 0.0 0.00 0.00 0.00 3 1013.2
20260830150105 64 146 0.0 0.0 0.00 0.00 0.00 3 1013.1
20260830144545 60 146 0.0 0.0 0.00 0.00 0.00 3 1013.0
20260830143040 55 146 0.0 0.0 0.00 0.00 0.00 3 1013.0
20260830141512 0 0.0 0.0 0.00 0.00 0.00 1012.7
20260830140010 0 0.0 0.0 0.00 0.00 0.00 1012.6
20260830134547 0 0.0 0.0 0.00 0.00 0.00 1012.4
20260830133043 0 0.0 0.0 0.00 0.00 0.00 1012.4
20260830131521 0 0.0 0.0 0.00 0.00 0.00 1012.2
20260830130017 0 0.0 0.0 0.00 0.00 0.00 1012.1
20260830124557 0 0.0 0.0 0.00 0.00 0.00 1012.0
20260830123056 0 0.0 0.0 0.00 0.00 0.00 1011.9
20260830121530 0 0.0 0.0 0.00 0.00 0.00 1011.8
20260830120024 0 0.0 0.0 0.00 0.00 0.00 1011.8
20260830114501 0 0.0 0.0 0.00 0.00 0.00 1011.8
20260830113059 0 0.0 0.0 0.00 0.00 0.00 1011.9
20260830111537 0 0.0 0.0 0.00 0.00 0.00 1011.9
20260830110033 0 0.0 0.0 0.00 0.00 0.00 1011.9
20260830104510 55 146 0.0 0.0 0.00 0.00 0.00 3 1011.8
20260830103006 58 147 0.0 0.0 0.00 0.00 0.00 3 1011.8
20260830101544 58 146 0.0 0.0 0.00 0.00 0.00 3 1011.8
20260830100050 57 147 0.0 0.0 0.00 0.00 0.00 3 1011.8
20260830094518 58 146 0.0 0.0 0.00 0.00 0.00 3 1011.8
20260830093113 58 146 0.0 0.0 0.00 0.00 0.00 3 1011.8
20260830091552 58 146 0.0 0.0 0.00 0.00 0.00 3 1011.8
20260830090047 58 146 0.0 0.0 0.00 0.00 0.00 3 1011.7
20260830084546 58 147 0.0 0.0 0.00 0.00 0.00 3 1011.7
20260830083021 59 146 0.0 0.0 0.00 0.00 0.00 3 1011.8
20260830081637 58 147 0.0 0.0 0.00 0.00 0.00 3 1011.8
20260830080106 58 146 0.0 0.0 0.00 0.00 0.00 3 1011.8
20260830074603 59 147 0.0 0.0 0.00 0.00 0.00 3 1011.9
20260830073030 59 146 0.0 0.0 0.00 0.00 0.00 3 1011.9
20260830071526 59 146 0.0 0.0 0.00 0.00 0.00 3 1011.9
20260830070005 59 146 0.0 0.0 0.00 0.00 0.00 3 1011.8
20260830064559 58 146 0.0 0.0 0.00 0.00 0.00 12 1011.8